Time,TemperatureF,DewpointF,PressureIn,WindDirection,WindDirectionDegrees,WindSpeedMPH,WindSpeedGustMPH,Humidity,HourlyPrecipIn,Conditions,Clouds,dailyrainin,SoftwareType,DateUTC
2013-08-24 01:03:00,47.0,-99.9,30.10,SW,225,6.0,8.0,0,-99.99,,,0.00,,2013-08-24 05:03:00,
2013-08-24 01:43:00,47.0,-99.9,30.10,SW,225,6.0,8.0,0,-99.99,,,0.00,,2013-08-24 05:43:00,
2013-08-24 01:53:00,47.0,-99.9,30.10,SW,225,6.0,8.0,0,-99.99,,,0.00,,2013-08-24 05:53:00,
2013-08-24 02:42:00,46.0,-99.9,30.11,WNW,292,4.0,9.0,0,-99.99,,,0.00,,2013-08-24 06:42:00,
2013-08-24 02:52:00,46.0,-99.9,30.11,WNW,292,4.0,9.0,0,-99.99,,,0.00,,2013-08-24 06:52:00,
2013-08-24 03:02:00,46.0,-99.9,30.11,WNW,292,4.0,9.0,0,-99.99,,,0.00,,2013-08-24 07:02:00,
2013-08-24 09:42:00,50.0,-99.9,30.21,West,270,7.0,10.0,0,-99.99,,,0.00,,2013-08-24 13:42:00,
2013-08-24 09:52:00,50.0,-99.9,30.21,West,270,7.0,10.0,0,-99.99,,,0.00,,2013-08-24 13:52:00,
2013-08-24 10:02:00,50.0,-99.9,30.21,West,270,7.0,10.0,0,-99.99,,,0.00,,2013-08-24 14:02:00,
2013-08-24 10:42:00,62.0,-99.9,30.20,NNW,337,4.0,8.0,0,-99.99,,,0.00,,2013-08-24 14:42:00,
2013-08-24 10:52:00,62.0,-99.9,30.20,NNW,337,4.0,8.0,0,-99.99,,,0.00,,2013-08-24 14:52:00,
2013-08-24 11:02:00,62.0,-99.9,30.20,NNW,337,4.0,8.0,0,-99.99,,,0.00,,2013-08-24 15:02:00,
2013-08-24 11:03:00,67.0,-99.9,30.20,NW,315,4.0,7.0,0,-99.99,,,0.00,,2013-08-24 15:03:00,
2013-08-24 11:45:00,67.0,-99.9,30.20,NW,315,4.0,7.0,0,-99.99,,,0.00,,2013-08-24 15:45:00,
2013-08-24 11:54:00,67.0,-99.9,30.20,NW,315,4.0,7.0,0,-99.99,,,0.00,,2013-08-24 15:54:00,
2013-08-24 12:42:00,68.0,-99.9,30.19,WSW,247,7.0,14.0,0,-99.99,,,0.00,,2013-08-24 16:42:00,
2013-08-24 12:53:00,68.0,-99.9,30.19,WSW,247,7.0,14.0,0,-99.99,,,0.00,,2013-08-24 16:53:00,
2013-08-24 13:02:00,68.0,-99.9,30.19,WSW,247,7.0,14.0,0,-99.99,,,0.00,,2013-08-24 17:02:00,
2013-08-24 13:03:00,70.0,-99.9,30.17,South,180,4.0,13.0,0,-99.99,,,0.00,,2013-08-24 17:03:00,
2013-08-24 13:42:00,70.0,-99.9,30.17,South,180,4.0,13.0,0,-99.99,,,0.00,,2013-08-24 17:42:00,
2013-08-24 13:52:00,70.0,-99.9,30.17,South,180,4.0,13.0,0,-99.99,,,0.00,,2013-08-24 17:52:00,
2013-08-24 14:42:00,72.0,-99.9,30.16,SW,225,6.0,12.0,0,-99.99,,,0.00,,2013-08-24 18:42:00,
2013-08-24 14:53:00,72.0,-99.9,30.16,SW,225,6.0,12.0,0,-99.99,,,0.00,,2013-08-24 18:53:00,
2013-08-24 15:01:00,72.0,-99.9,30.16,SW,225,6.0,12.0,0,-99.99,,,0.00,,2013-08-24 19:01:00,
2013-08-24 15:42:00,74.0,-99.9,30.14,WNW,292,5.0,12.0,0,-99.99,,,-99.99,,2013-08-24 19:42:00,
2013-08-24 15:52:00,74.0,-99.9,30.14,WNW,292,5.0,12.0,0,-99.99,,,-99.99,,2013-08-24 19:52:00,
2013-08-24 16:02:00,74.0,-99.9,30.14,WNW,292,5.0,12.0,0,-99.99,,,-99.99,,2013-08-24 20:02:00,
2013-08-24 16:42:00,74.0,-99.9,30.14,North,360,5.0,11.0,0,-99.99,,,0.00,,2013-08-24 20:42:00,
2013-08-24 16:53:00,74.0,-99.9,30.14,North,360,5.0,11.0,0,-99.99,,,0.00,,2013-08-24 20:53:00,
2013-08-24 17:02:00,74.0,-99.9,30.14,North,360,5.0,11.0,0,-99.99,,,0.00,,2013-08-24 21:02:00,
2013-08-24 17:03:00,74.0,-99.9,30.13,North,360,4.0,12.0,0,-99.99,,,0.00,,2013-08-24 21:03:00,
2013-08-24 17:43:00,74.0,-99.9,30.13,North,360,4.0,12.0,0,-99.99,,,0.00,,2013-08-24 21:43:00,
2013-08-24 17:55:00,74.0,-99.9,30.13,North,360,4.0,12.0,0,-99.99,,,0.00,,2013-08-24 21:55:00,
2013-08-24 18:03:00,73.0,-99.9,30.14,NNW,337,3.0,10.0,0,-99.99,,,0.00,,2013-08-24 22:03:00,
2013-08-24 18:43:00,73.0,-99.9,30.14,NNW,337,3.0,10.0,0,-99.99,,,0.00,,2013-08-24 22:43:00,
2013-08-24 18:53:00,73.0,-99.9,30.14,NNW,337,3.0,10.0,0,-99.99,,,0.00,,2013-08-24 22:53:00,
2013-08-24 19:43:00,69.0,-99.9,30.15,NNW,337,0.0,7.0,0,-99.99,,,0.00,,2013-08-24 23:43:00,
2013-08-24 19:53:00,69.0,-99.9,30.15,NNW,337,0.0,7.0,0,-99.99,,,0.00,,2013-08-24 23:53:00,
2013-08-24 20:02:00,69.0,-99.9,30.15,NNW,337,0.0,7.0,0,-99.99,,,0.00,,2013-08-25 00:02:00,
2013-08-24 20:42:00,57.0,-99.9,30.17,NNW,337,0.0,0.0,0,-99.99,,,0.00,,2013-08-25 00:42:00,
2013-08-24 20:52:00,57.0,-99.9,30.17,NNW,337,0.0,0.0,0,-99.99,,,0.00,,2013-08-25 00:52:00,
2013-08-24 21:01:00,57.0,-99.9,30.17,NNW,337,0.0,0.0,0,-99.99,,,0.00,,2013-08-25 01:01:00,
2013-08-24 21:43:00,52.0,-99.9,30.20,NNW,337,0.0,0.0,0,-99.99,,,0.00,,2013-08-25 01:43:00,
2013-08-24 21:53:00,52.0,-99.9,30.20,NNW,337,0.0,0.0,0,-99.99,,,0.00,,2013-08-25 01:53:00,
2013-08-24 22:02:00,52.0,-99.9,30.20,NNW,337,0.0,0.0,0,-99.99,,,0.00,,2013-08-25 02:02:00,
2013-08-24 22:42:00,52.0,-99.9,30.21,WSW,247,4.0,7.0,0,-99.99,,,0.00,,2013-08-25 02:42:00,
2013-08-24 22:52:00,52.0,-99.9,30.21,WSW,247,4.0,7.0,0,-99.99,,,0.00,,2013-08-25 02:52:00,
2013-08-24 23:02:00,52.0,-99.9,30.21,WSW,247,4.0,7.0,0,-99.99,,,0.00,,2013-08-25 03:02:00,
2013-08-24 23:03:00,-999.0,-99.9,30.21,WSW,247,3.0,7.0,-999,-99.99,,,-99.99,,2013-08-25 03:03:00,
2013-08-24 23:45:00,51.0,-99.9,30.21,WSW,247,3.0,7.0,0,-99.99,,,0.00,,2013-08-25 03:45:00,
2013-08-24 23:54:00,51.0,-99.9,30.21,WSW,247,3.0,7.0,0,-99.99,,,0.00,,2013-08-25 03:54:00,